Language: 


Des rapports , des résumés tant et plus, au choix de chacun....


Données statistiques de la station
Quotidien Rapport Février 19, 2017 Unités:  Métrique    Anglais   les deux
« Précédent Jour
Suivant Jour »
Quotidien Hebdomadaire Mensuel Annuel Actuel
  Haut: Bas: Moyen:
Température: 11.4 °C 0.0 °C 6.9 °C
Pt de rosée: 9.0 °C 2.4 °C 5.8 °C
Humidité: 98 % 0 % 93 %
Vitesse du vent: 23.0 km/h 0.0 km/h 9.3 km/h
Rafales: 28.0 km/h - -
Vent:- - WSW
Pression: 1024.9 hPa 1019.9 hPa -
Précipitation: 0.0 mm    
Historical Graphs
 
 
Données statistiques pour Février 19, 2017
Heure Température Point de rosée Pression Vent Vitesse du vent Refales Humidité Pluie (taux horaire)
00:01 4.4 °C 4.1 °C 1024.9 hPa South 5.8 km/h 8.7 km/h 98 % 0.0 mm
00:06 4.4 °C 4.1 °C 1024.9 hPa WSW 4.0 km/h 6.4 km/h 98 % 0.0 mm
00:11 4.4 °C 4.1 °C 1024.9 hPa SSW 6.1 km/h 7.9 km/h 98 % 0.0 mm
00:21 4.3 °C 4.0 °C 1024.9 hPa SSW 8.7 km/h 11.1 km/h 98 % 0.0 mm
00:26 4.3 °C 4.0 °C 1023.9 hPa WSW 6.4 km/h 11.6 km/h 98 % 0.0 mm
00:31 4.2 °C 3.9 °C 1023.9 hPa SSW 6.4 km/h 11.6 km/h 98 % 0.0 mm
00:36 4.2 °C 3.9 °C 1023.9 hPa WSW 9.7 km/h 11.6 km/h 98 % 0.0 mm
00:41 4.2 °C 3.9 °C 1024.9 hPa West 10.1 km/h 10.1 km/h 98 % 0.0 mm
00:46 4.1 °C 3.8 °C 1024.9 hPa WSW 6.9 km/h 11.9 km/h 98 % 0.0 mm
00:51 4.2 °C 3.9 °C 1024.9 hPa WSW 9.7 km/h 11.9 km/h 98 % 0.0 mm
00:56 4.2 °C 3.9 °C 1024.9 hPa SW 6.4 km/h 11.9 km/h 98 % 0.0 mm
01:01 4.2 °C 3.9 °C 1024.9 hPa WSW 9.3 km/h 11.9 km/h 98 % 0.0 mm
01:06 4.1 °C 3.8 °C 1024.9 hPa WSW 10.5 km/h 12.6 km/h 98 % 0.0 mm
01:11 4.1 °C 3.8 °C 1024.9 hPa West 9.3 km/h 12.6 km/h 98 % 0.0 mm
01:16 4.1 °C 3.8 °C 1024.9 hPa WSW 9.7 km/h 12.2 km/h 98 % 0.0 mm
01:21 4.1 °C 3.8 °C 1024.9 hPa SW 10.1 km/h 13.0 km/h 98 % 0.0 mm
01:26 4.0 °C 3.7 °C 1023.9 hPa WSW 9.3 km/h 13.0 km/h 98 % 0.0 mm
01:31 3.9 °C 3.6 °C 1023.9 hPa WSW 9.0 km/h 11.9 km/h 98 % 0.0 mm
01:36 3.9 °C 3.6 °C 1023.9 hPa SSW 13.0 km/h 13.0 km/h 98 % 0.0 mm
01:41 3.8 °C 3.6 °C 1023.9 hPa SSW 8.7 km/h 13.0 km/h 98 % 0.0 mm
01:46 3.8 °C 3.6 °C 1023.9 hPa SW 6.4 km/h 12.6 km/h 98 % 0.0 mm
01:51 3.8 °C 3.6 °C 1023.9 hPa WSW 9.7 km/h 13.0 km/h 98 % 0.0 mm
01:56 3.8 °C 3.6 °C 1023.9 hPa WSW 11.1 km/h 14.0 km/h 98 % 0.0 mm
02:02 0.0 °C 3.5 °C 1023.9 hPa SW 9.7 km/h 14.0 km/h 0 % 0.0 mm
02:07 3.7 °C 3.4 °C 1022.9 hPa WSW 8.7 km/h 13.0 km/h 98 % 0.0 mm
02:12 3.7 °C 3.4 °C 1022.9 hPa WSW 13.7 km/h 13.7 km/h 98 % 0.0 mm
02:17 3.7 °C 3.4 °C 1022.9 hPa WSW 10.1 km/h 14.0 km/h 98 % 0.0 mm
02:22 3.7 °C 3.4 °C 1022.9 hPa SW 10.5 km/h 14.0 km/h 98 % 0.0 mm
02:27 3.7 °C 3.4 °C 1022.9 hPa WSW 9.0 km/h 12.6 km/h 98 % 0.0 mm
02:32 3.7 °C 3.4 °C 1022.9 hPa SSW 6.4 km/h 10.1 km/h 98 % 0.0 mm
02:37 3.8 °C 3.6 °C 1022.9 hPa SW 6.4 km/h 9.7 km/h 98 % 0.0 mm
02:42 3.8 °C 3.6 °C 1022.9 hPa WSW 6.4 km/h 10.1 km/h 98 % 0.0 mm
02:47 3.8 °C 3.6 °C 1022.9 hPa SW 11.6 km/h 11.6 km/h 98 % 0.0 mm
02:52 3.8 °C 3.6 °C 1022.9 hPa SSW 6.9 km/h 12.6 km/h 98 % 0.0 mm
02:57 3.8 °C 3.6 °C 1022.9 hPa SSW 5.0 km/h 12.6 km/h 98 % 0.0 mm
03:02 3.8 °C 3.6 °C 1022.9 hPa SSW 5.5 km/h 12.6 km/h 98 % 0.0 mm
03:07 3.9 °C 3.6 °C 1022.9 hPa WSW 6.9 km/h 9.7 km/h 98 % 0.0 mm
03:12 3.9 °C 3.6 °C 1022.9 hPa SSW 8.7 km/h 12.2 km/h 98 % 0.0 mm
03:17 4.0 °C 3.7 °C 1022.9 hPa SSW 6.9 km/h 12.2 km/h 98 % 0.0 mm
03:22 4.0 °C 3.7 °C 1022.9 hPa SSW 12.2 km/h 12.6 km/h 98 % 0.0 mm
03:27 4.0 °C 3.7 °C 1022.9 hPa SSW 7.9 km/h 12.6 km/h 98 % 0.0 mm
03:32 4.1 °C 3.8 °C 1022.9 hPa WSW 8.7 km/h 13.0 km/h 98 % 0.0 mm
03:37 4.1 °C 3.8 °C 1022.9 hPa WSW 6.9 km/h 16.6 km/h 98 % 0.0 mm
03:42 4.2 °C 3.9 °C 1022.9 hPa WSW 9.3 km/h 16.6 km/h 98 % 0.0 mm
03:47 4.2 °C 3.9 °C 1022.9 hPa SSW 8.7 km/h 10.1 km/h 98 % 0.0 mm
03:52 4.3 °C 4.0 °C 1022.9 hPa SW 9.0 km/h 13.0 km/h 98 % 0.0 mm
03:57 4.3 °C 4.0 °C 1022.9 hPa SW 10.1 km/h 13.0 km/h 98 % 0.0 mm
04:02 4.3 °C 4.0 °C 1022.9 hPa SSW 9.3 km/h 10.5 km/h 98 % 0.0 mm
04:07 4.3 °C 4.0 °C 1021.9 hPa SW 12.6 km/h 12.6 km/h 98 % 0.0 mm
04:12 4.3 °C 4.0 °C 1021.9 hPa WSW 9.0 km/h 12.6 km/h 98 % 0.0 mm
04:17 4.3 °C 4.0 °C 1021.9 hPa SSW 5.5 km/h 12.6 km/h 98 % 0.0 mm
04:22 4.3 °C 4.0 °C 1022.9 hPa SW 9.0 km/h 10.5 km/h 98 % 0.0 mm
04:27 4.3 °C 4.0 °C 1022.9 hPa SSW 7.6 km/h 10.5 km/h 98 % 0.0 mm
04:32 4.3 °C 4.0 °C 1022.9 hPa WSW 10.1 km/h 10.5 km/h 98 % 0.0 mm
04:37 4.2 °C 3.9 °C 1022.9 hPa SSW 7.9 km/h 11.6 km/h 98 % 0.0 mm
04:42 4.2 °C 3.9 °C 1022.9 hPa SSW 9.0 km/h 14.0 km/h 98 % 0.0 mm
04:47 4.2 °C 3.9 °C 1022.9 hPa SW 10.1 km/h 14.0 km/h 98 % 0.0 mm
04:52 4.1 °C 3.8 °C 1021.9 hPa South 5.8 km/h 10.1 km/h 98 % 0.0 mm
04:57 4.1 °C 3.8 °C 1021.9 hPa SW 6.9 km/h 10.5 km/h 98 % 0.0 mm
05:02 4.0 °C 3.7 °C 1021.9 hPa SSW 6.9 km/h 10.5 km/h 98 % 0.0 mm
05:07 4.0 °C 3.7 °C 1022.9 hPa SW 7.9 km/h 10.5 km/h 98 % 0.0 mm
05:12 3.9 °C 3.6 °C 1022.9 hPa SW 9.7 km/h 14.0 km/h 98 % 0.0 mm
05:17 3.9 °C 3.6 °C 1022.9 hPa WSW 6.4 km/h 14.0 km/h 98 % 0.0 mm
05:22 3.8 °C 3.6 °C 1022.9 hPa Calm   10.5 km/h 98 % 0.0 mm
05:27 3.8 °C 3.6 °C 1022.9 hPa WSW 5.8 km/h 8.7 km/h 98 % 0.0 mm
05:32 3.8 °C 3.6 °C 1022.9 hPa SSW 5.8 km/h 9.0 km/h 98 % 0.0 mm
05:37 3.7 °C 3.4 °C 1022.9 hPa SW 6.9 km/h 9.7 km/h 98 % 0.0 mm
05:38 3.7 °C 3.4 °C 1022.9 hPa SSW 5.0 km/h 9.7 km/h 98 % 0.0 mm
05:43 3.7 °C 3.4 °C 1022.9 hPa SW 3.2 km/h 9.7 km/h 98 % 0.0 mm
05:48 3.6 °C 3.3 °C 1022.9 hPa SSW 5.8 km/h 9.7 km/h 98 % 0.0 mm
05:53 3.6 °C 3.3 °C 1022.9 hPa SW 4.3 km/h 6.4 km/h 98 % 0.0 mm
05:54 3.6 °C 3.3 °C 1022.9 hPa SSW 2.6 km/h 6.1 km/h 98 % 0.0 mm
05:59 3.6 °C 3.3 °C 1022.9 hPa SSW 4.3 km/h 9.0 km/h 98 % 0.0 mm
06:04 3.6 °C 3.3 °C 1022.9 hPa SW 4.7 km/h 9.0 km/h 98 % 0.0 mm
06:09 3.6 °C 3.3 °C 1022.9 hPa Calm   6.9 km/h 98 % 0.0 mm
06:14 3.6 °C 3.3 °C 1022.9 hPa SSW 4.7 km/h 6.9 km/h 98 % 0.0 mm
06:19 3.6 °C 3.3 °C 1022.9 hPa SSW 1.8 km/h 6.1 km/h 98 % 0.0 mm
06:24 3.6 °C 3.2 °C 1022.9 hPa South 1.8 km/h 6.4 km/h 98 % 0.0 mm
06:29 3.6 °C 3.2 °C 1022.9 hPa SSW 5.0 km/h 6.4 km/h 98 % 0.0 mm
06:34 3.6 °C 3.2 °C 1022.9 hPa South 6.1 km/h 6.4 km/h 98 % 0.0 mm
06:39 3.4 °C 3.2 °C 1021.9 hPa SSW 8.7 km/h 9.0 km/h 98 % 0.0 mm
06:44 3.4 °C 3.2 °C 1021.9 hPa SSW 4.7 km/h 9.0 km/h 98 % 0.0 mm
06:49 3.3 °C 3.1 °C 1021.9 hPa Calm   6.9 km/h 98 % 0.0 mm
06:54 3.3 °C 3.1 °C 1022.9 hPa Calm   5.0 km/h 98 % 0.0 mm
06:59 3.3 °C 3.1 °C 1022.9 hPa SSW 5.0 km/h 6.9 km/h 98 % 0.0 mm
07:04 3.3 °C 3.1 °C 1022.9 hPa Calm   7.9 km/h 98 % 0.0 mm
07:09 3.3 °C 3.1 °C 1021.9 hPa South 5.8 km/h 7.9 km/h 98 % 0.0 mm
07:14 3.2 °C 2.9 °C 1021.9 hPa South 6.1 km/h 6.9 km/h 98 % 0.0 mm
07:19 3.1 °C 2.8 °C 1021.9 hPa Calm   7.6 km/h 98 % 0.0 mm
07:24 3.1 °C 2.8 °C 1021.9 hPa Calm   7.6 km/h 98 % 0.0 mm
07:29 2.9 °C 2.7 °C 1021.9 hPa Calm   5.0 km/h 98 % 0.0 mm
07:34 2.7 °C 2.4 °C 1021.9 hPa South 4.3 km/h 5.5 km/h 98 % 0.0 mm
07:39 2.7 °C 2.4 °C 1021.9 hPa Calm   5.5 km/h 98 % 0.0 mm
07:44 2.7 °C 2.4 °C 1021.9 hPa Calm   5.0 km/h 98 % 0.0 mm
07:49 2.7 °C 2.4 °C 1021.9 hPa Calm   5.0 km/h 98 % 0.0 mm
07:54 2.7 °C 2.4 °C 1021.9 hPa WSW 1.8 km/h 5.5 km/h 98 % 0.0 mm
07:59 2.7 °C 2.4 °C 1021.9 hPa Calm   5.5 km/h 98 % 0.0 mm
08:04 2.7 °C 2.4 °C 1021.9 hPa SSW 7.9 km/h 7.9 km/h 98 % 0.0 mm
08:09 2.7 °C 2.4 °C 1021.9 hPa SSW 7.6 km/h 9.0 km/h 98 % 0.0 mm
08:14 2.7 °C 2.4 °C 1021.9 hPa SSW 5.8 km/h 9.0 km/h 98 % 0.0 mm
08:20 2.8 °C 2.6 °C 1021.9 hPa SSW 4.7 km/h 6.9 km/h 98 % 0.0 mm
08:25 2.9 °C 2.7 °C 1021.9 hPa SW 4.3 km/h 7.6 km/h 98 % 0.0 mm
08:30 3.1 °C 2.8 °C 1021.9 hPa Calm   7.6 km/h 98 % 0.0 mm
08:35 3.1 °C 2.8 °C 1021.9 hPa SW 3.5 km/h 6.9 km/h 98 % 0.0 mm
08:40 3.2 °C 2.9 °C 1021.9 hPa South 2.6 km/h 6.1 km/h 98 % 0.0 mm
08:45 3.3 °C 3.1 °C 1021.9 hPa Calm   6.1 km/h 98 % 0.0 mm
08:50 3.6 °C 3.2 °C 1021.9 hPa SW 7.6 km/h 7.6 km/h 98 % 0.0 mm
08:55 3.6 °C 3.3 °C 1022.9 hPa WSW 4.0 km/h 7.6 km/h 98 % 0.0 mm
09:00 3.9 °C 3.6 °C 1022.9 hPa WSW 4.3 km/h 7.6 km/h 98 % 0.0 mm
09:05 4.1 °C 3.8 °C 1022.9 hPa Calm   5.8 km/h 98 % 0.0 mm
09:10 4.3 °C 4.0 °C 1022.9 hPa Calm   5.5 km/h 98 % 0.0 mm
09:15 4.5 °C 4.2 °C 1022.9 hPa Calm   5.0 km/h 98 % 0.0 mm
09:20 4.6 °C 4.3 °C 1022.9 hPa SW 6.4 km/h 7.9 km/h 98 % 0.0 mm
09:25 4.8 °C 4.5 °C 1022.9 hPa SW 9.0 km/h 9.0 km/h 98 % 0.0 mm
09:30 4.9 °C 4.6 °C 1022.9 hPa WSW 6.1 km/h 9.7 km/h 98 % 0.0 mm
09:35 5.1 °C 4.8 °C 1022.9 hPa WSW 9.0 km/h 10.1 km/h 98 % 0.0 mm
09:40 5.3 °C 5.0 °C 1022.9 hPa WSW 9.7 km/h 11.9 km/h 98 % 0.0 mm
09:45 5.5 °C 5.2 °C 1022.9 hPa WSW 10.1 km/h 13.0 km/h 98 % 0.0 mm
09:50 5.6 °C 5.3 °C 1022.9 hPa WSW 12.2 km/h 13.0 km/h 98 % 0.0 mm
09:55 5.8 °C 5.5 °C 1021.9 hPa SW 8.7 km/h 17.7 km/h 98 % 0.0 mm
10:00 6.0 °C 5.7 °C 1021.9 hPa WSW 10.5 km/h 17.7 km/h 98 % 0.0 mm
10:01 6.1 °C 5.8 °C 1021.9 hPa WSW 12.6 km/h 17.7 km/h 98 % 0.0 mm
10:06 6.3 °C 6.0 °C 1021.9 hPa WSW 10.1 km/h 17.7 km/h 98 % 0.0 mm
10:11 6.7 °C 6.4 °C 1021.9 hPa SW 9.7 km/h 17.7 km/h 98 % 0.0 mm
10:16 6.9 °C 6.7 °C 1021.9 hPa WSW 10.8 km/h 14.8 km/h 98 % 0.0 mm
10:21 7.2 °C 6.8 °C 1021.9 hPa WSW 13.0 km/h 16.3 km/h 98 % 0.0 mm
10:26 7.7 °C 7.3 °C 1021.9 hPa WSW 10.1 km/h 16.3 km/h 98 % 0.0 mm
10:31 7.6 °C 7.3 °C 1021.9 hPa SSW 10.5 km/h 15.8 km/h 98 % 0.0 mm
10:36 7.6 °C 7.3 °C 1021.9 hPa WSW 9.7 km/h 13.7 km/h 98 % 0.0 mm
10:41 7.9 °C 7.7 °C 1021.9 hPa WSW 11.9 km/h 16.6 km/h 98 % 0.0 mm
10:51 8.3 °C 8.1 °C 1021.9 hPa WSW 13.0 km/h 17.7 km/h 98 % 0.0 mm
10:56 8.2 °C 7.9 °C 1021.9 hPa WSW 12.6 km/h 21.2 km/h 98 % 0.0 mm
11:01 8.6 °C 8.3 °C 1021.9 hPa WSW 15.4 km/h 21.2 km/h 98 % 0.0 mm
11:06 8.9 °C 8.4 °C 1021.9 hPa WSW 16.3 km/h 20.9 km/h 97 % 0.0 mm
11:11 8.9 °C 8.3 °C 1021.9 hPa West 13.0 km/h 20.9 km/h 96 % 0.0 mm
11:16 8.8 °C 8.1 °C 1021.9 hPa WSW 19.1 km/h 21.2 km/h 95 % 0.0 mm
11:21 8.9 °C 8.2 °C 1021.9 hPa WSW 13.7 km/h 21.6 km/h 95 % 0.0 mm
11:26 8.9 °C 8.0 °C 1022.9 hPa West 20.9 km/h 21.6 km/h 94 % 0.0 mm
11:31 9.0 °C 8.1 °C 1022.9 hPa WSW 13.0 km/h 20.9 km/h 94 % 0.0 mm
11:36 8.9 °C 7.8 °C 1022.9 hPa WSW 12.6 km/h 23.0 km/h 93 % 0.0 mm
11:41 8.9 °C 7.8 °C 1022.9 hPa WSW 16.6 km/h 23.0 km/h 93 % 0.0 mm
11:46 9.1 °C 8.1 °C 1022.9 hPa West 16.3 km/h 22.4 km/h 93 % 0.0 mm
11:51 9.1 °C 8.1 °C 1022.9 hPa West 16.9 km/h 20.9 km/h 93 % 0.0 mm
11:56 9.1 °C 8.1 °C 1021.9 hPa WSW 16.6 km/h 20.9 km/h 93 % 0.0 mm
12:01 9.1 °C 8.1 °C 1021.9 hPa West 15.8 km/h 21.6 km/h 93 % 0.0 mm
12:06 9.2 °C 8.1 °C 1021.9 hPa West 16.6 km/h 21.6 km/h 93 % 0.0 mm
12:11 9.3 °C 8.2 °C 1021.9 hPa WSW 21.6 km/h 24.5 km/h 93 % 0.0 mm
12:16 9.3 °C 8.2 °C 1021.9 hPa West 15.8 km/h 24.5 km/h 93 % 0.0 mm
12:21 9.3 °C 8.2 °C 1021.9 hPa WSW 17.2 km/h 21.6 km/h 93 % 0.0 mm
12:26 9.3 °C 8.2 °C 1021.9 hPa WSW 16.6 km/h 20.6 km/h 93 % 0.0 mm
12:31 9.4 °C 8.3 °C 1021.9 hPa WSW 23.0 km/h 23.0 km/h 93 % 0.0 mm
12:36 9.5 °C 8.3 °C 1021.9 hPa WSW 16.6 km/h 23.0 km/h 92 % 0.0 mm
12:41 9.7 °C 8.4 °C 1021.9 hPa WSW 16.6 km/h 23.0 km/h 92 % 0.0 mm
12:46 9.9 °C 8.7 °C 1021.9 hPa WSW 19.8 km/h 21.9 km/h 92 % 0.0 mm
12:56 10.1 °C 8.8 °C 1021.9 hPa WSW 19.5 km/h 28.0 km/h 92 % 0.0 mm
13:01 10.1 °C 8.7 °C 1021.9 hPa West 17.7 km/h 28.0 km/h 91 % 0.0 mm
13:06 10.1 °C 8.7 °C 1021.9 hPa West 20.9 km/h 23.8 km/h 91 % 0.0 mm
13:11 10.2 °C 8.8 °C 1021.9 hPa WSW 17.2 km/h 20.9 km/h 91 % 0.0 mm
13:16 10.3 °C 8.9 °C 1021.9 hPa West 16.3 km/h 20.6 km/h 91 % 0.0 mm
13:21 10.3 °C 8.7 °C 1021.9 hPa West 12.6 km/h 23.3 km/h 90 % 0.0 mm
13:26 10.4 °C 8.8 °C 1021.9 hPa WSW 20.1 km/h 23.3 km/h 90 % 0.0 mm
13:31 10.6 °C 9.0 °C 1021.9 hPa WSW 19.5 km/h 22.7 km/h 90 % 0.0 mm
13:36 10.7 °C 8.9 °C 1021.9 hPa West 20.6 km/h 25.6 km/h 89 % 0.0 mm
13:41 10.8 °C 8.9 °C 1021.9 hPa WSW 13.7 km/h 25.6 km/h 88 % 0.0 mm
13:46 10.9 °C 8.9 °C 1021.9 hPa West 14.8 km/h 23.3 km/h 88 % 0.0 mm
13:51 10.9 °C 8.9 °C 1021.9 hPa SW 13.0 km/h 21.2 km/h 88 % 0.0 mm
13:56 10.9 °C 8.8 °C 1020.9 hPa WSW 19.5 km/h 19.8 km/h 87 % 0.0 mm
14:01 10.8 °C 8.6 °C 1020.9 hPa West 15.8 km/h 20.1 km/h 86 % 0.0 mm
14:06 10.7 °C 8.6 °C 1020.9 hPa WSW 14.0 km/h 20.1 km/h 87 % 0.0 mm
14:11 10.6 °C 8.5 °C 1020.9 hPa West 12.6 km/h 20.1 km/h 87 % 0.0 mm
14:16 10.6 °C 8.7 °C 1020.9 hPa WSW 15.8 km/h 20.1 km/h 88 % 0.0 mm
14:21 10.6 °C 8.5 °C 1020.9 hPa West 20.1 km/h 21.6 km/h 87 % 0.0 mm
14:26 10.7 °C 8.4 °C 1020.9 hPa WSW 8.7 km/h 21.6 km/h 86 % 0.0 mm
14:31 10.7 °C 8.4 °C 1020.9 hPa West 10.5 km/h 17.7 km/h 86 % 0.0 mm
14:36 10.8 °C 8.3 °C 1020.9 hPa WNW 13.0 km/h 16.3 km/h 85 % 0.0 mm
14:41 10.9 °C 8.3 °C 1020.9 hPa West 12.6 km/h 17.2 km/h 84 % 0.0 mm
14:46 11.0 °C 8.4 °C 1020.9 hPa West 7.9 km/h 17.2 km/h 84 % 0.0 mm
14:51 11.2 °C 8.4 °C 1020.9 hPa West 9.0 km/h 20.1 km/h 83 % 0.0 mm
14:56 11.3 °C 8.3 °C 1020.9 hPa West 9.7 km/h 20.6 km/h 82 % 0.0 mm
15:01 11.4 °C 8.4 °C 1020.9 hPa West 9.3 km/h 20.6 km/h 82 % 0.0 mm
15:06 11.4 °C 8.2 °C 1020.9 hPa West 15.4 km/h 20.9 km/h 81 % 0.0 mm
15:11 11.4 °C 8.2 °C 1019.9 hPa WNW 13.0 km/h 20.9 km/h 81 % 0.0 mm
15:16 11.4 °C 8.1 °C 1019.9 hPa WNW 13.7 km/h 15.4 km/h 80 % 0.0 mm
15:21 11.4 °C 7.8 °C 1019.9 hPa West 10.5 km/h 15.8 km/h 79 % 0.0 mm
15:26 11.4 °C 7.9 °C 1020.9 hPa WNW 11.9 km/h 15.8 km/h 79 % 0.0 mm
15:31 11.4 °C 7.9 °C 1020.9 hPa West 13.0 km/h 13.7 km/h 79 % 0.0 mm
15:36 11.4 °C 7.9 °C 1020.9 hPa WNW 6.4 km/h 22.4 km/h 79 % 0.0 mm
15:41 11.4 °C 7.8 °C 1020.9 hPa NE 7.9 km/h 22.4 km/h 78 % 0.0 mm
15:46 11.4 °C 7.7 °C 1020.9 hPa West 5.8 km/h 19.8 km/h 78 % 0.0 mm
15:51 11.4 °C 7.9 °C 1020.9 hPa West 9.0 km/h 19.8 km/h 79 % 0.0 mm
15:56 11.4 °C 7.7 °C 1020.9 hPa WNW 9.3 km/h 16.6 km/h 78 % 0.0 mm
16:01 11.4 °C 7.9 °C 1020.9 hPa West 8.7 km/h 16.6 km/h 79 % 0.0 mm
16:06 11.4 °C 7.7 °C 1020.9 hPa West 12.2 km/h 16.3 km/h 78 % 0.0 mm
16:11 11.4 °C 7.8 °C 1020.9 hPa WNW 6.1 km/h 16.3 km/h 79 % 0.0 mm
16:16 11.4 °C 7.9 °C 1020.9 hPa West 16.9 km/h 19.5 km/h 79 % 0.0 mm
16:21 11.4 °C 7.6 °C 1020.9 hPa WSW 15.1 km/h 22.7 km/h 77 % 0.0 mm
16:26 11.4 °C 7.8 °C 1020.9 hPa West 6.9 km/h 22.7 km/h 78 % 0.0 mm
16:31 11.3 °C 7.6 °C 1020.9 hPa West 10.5 km/h 20.6 km/h 78 % 0.0 mm
16:37 11.2 °C 7.3 °C 1020.9 hPa WSW 11.9 km/h 18.3 km/h 77 % 0.0 mm
16:42 11.1 °C 7.2 °C 1020.9 hPa West 13.7 km/h 21.6 km/h 77 % 0.0 mm
16:47 11.1 °C 7.2 °C 1020.9 hPa West 10.5 km/h 21.6 km/h 77 % 0.0 mm
16:52 11.0 °C 7.3 °C 1020.9 hPa West 10.8 km/h 17.7 km/h 78 % 0.0 mm
16:57 10.9 °C 7.4 °C 1020.9 hPa West 13.7 km/h 17.7 km/h 79 % 0.0 mm
17:02 10.9 °C 7.6 °C 1020.9 hPa West 10.5 km/h 16.3 km/h 80 % 0.0 mm
17:07 10.7 °C 7.6 °C 1020.9 hPa West 13.7 km/h 17.7 km/h 81 % 0.0 mm
17:12 10.7 °C 7.6 °C 1021.9 hPa WSW 13.0 km/h 19.8 km/h 81 % 0.0 mm
17:17 10.7 °C 7.6 °C 1021.9 hPa West 15.4 km/h 19.8 km/h 81 % 0.0 mm
17:22 10.6 °C 7.6 °C 1021.9 hPa WSW 10.5 km/h 17.7 km/h 82 % 0.0 mm
17:27 10.5 °C 7.6 °C 1020.9 hPa WSW 11.9 km/h 16.9 km/h 82 % 0.0 mm
17:32 10.5 °C 7.6 °C 1020.9 hPa WSW 13.0 km/h 17.7 km/h 82 % 0.0 mm
17:37 10.4 °C 7.4 °C 1019.9 hPa West 9.7 km/h 17.7 km/h 82 % 0.0 mm
17:42 10.3 °C 7.6 °C 1019.9 hPa West 10.8 km/h 16.9 km/h 83 % 0.0 mm
17:47 10.2 °C 7.4 °C 1019.9 hPa WSW 15.1 km/h 16.3 km/h 83 % 0.0 mm
17:52 10.1 °C 7.3 °C 1020.9 hPa WSW 13.7 km/h 16.9 km/h 83 % 0.0 mm
17:57 10.0 °C 7.2 °C 1020.9 hPa WSW 9.0 km/h 16.9 km/h 83 % 0.0 mm
18:02 9.9 °C 7.3 °C 1020.9 hPa WSW 9.7 km/h 16.3 km/h 84 % 0.0 mm
18:07 9.9 °C 7.3 °C 1020.9 hPa WSW 12.2 km/h 16.9 km/h 84 % 0.0 mm
18:12 9.8 °C 7.2 °C 1020.9 hPa West 13.0 km/h 17.7 km/h 84 % 0.0 mm
18:17 9.7 °C 7.3 °C 1020.9 hPa WSW 16.3 km/h 19.8 km/h 85 % 0.0 mm
18:22 9.6 °C 7.2 °C 1019.9 hPa WSW 10.1 km/h 19.8 km/h 85 % 0.0 mm
18:27 9.5 °C 7.1 °C 1019.9 hPa West 10.5 km/h 16.9 km/h 85 % 0.0 mm
18:32 9.5 °C 7.3 °C 1019.9 hPa West 13.7 km/h 16.9 km/h 86 % 0.0 mm
18:37 9.4 °C 7.0 °C 1020.9 hPa West 13.7 km/h 16.9 km/h 85 % 0.0 mm
18:42 9.4 °C 7.0 °C 1020.9 hPa WSW 13.7 km/h 17.7 km/h 85 % 0.0 mm
18:47 9.2 °C 6.8 °C 1020.9 hPa West 10.1 km/h 17.7 km/h 85 % 0.0 mm
18:52 9.1 °C 6.7 °C 1020.9 hPa West 11.6 km/h 15.4 km/h 85 % 0.0 mm
18:57 9.0 °C 6.6 °C 1020.9 hPa WSW 8.7 km/h 15.8 km/h 85 % 0.0 mm
19:02 8.9 °C 6.6 °C 1020.9 hPa WSW 10.5 km/h 15.8 km/h 85 % 0.0 mm
19:07 8.7 °C 6.5 °C 1021.9 hPa WSW 13.7 km/h 15.8 km/h 86 % 0.0 mm
19:12 8.6 °C 6.4 °C 1021.9 hPa WSW 12.6 km/h 16.3 km/h 86 % 0.0 mm
19:17 8.4 °C 6.2 °C 1021.9 hPa WSW 13.7 km/h 16.3 km/h 86 % 0.0 mm
19:22 8.2 °C 6.0 °C 1020.9 hPa West 9.7 km/h 14.0 km/h 86 % 0.0 mm
19:27 8.1 °C 5.8 °C 1020.9 hPa WSW 8.7 km/h 14.0 km/h 86 % 0.0 mm
19:32 7.8 °C 5.7 °C 1020.9 hPa WSW 7.9 km/h 10.5 km/h 86 % 0.0 mm
19:37 7.7 °C 5.6 °C 1020.9 hPa WSW 5.8 km/h 9.3 km/h 87 % 0.0 mm
19:42 7.3 °C 5.1 °C 1020.9 hPa WSW 5.5 km/h 7.9 km/h 86 % 0.0 mm
19:47 6.9 °C 4.8 °C 1020.9 hPa WSW 6.9 km/h 6.9 km/h 86 % 0.0 mm
19:52 6.8 °C 4.8 °C 1021.9 hPa WSW 7.2 km/h 7.9 km/h 87 % 0.0 mm
19:57 6.7 °C 4.8 °C 1021.9 hPa WSW 6.4 km/h 7.9 km/h 88 % 0.0 mm
20:02 6.4 °C 4.5 °C 1021.9 hPa WSW 6.1 km/h 7.9 km/h 88 % 0.0 mm
20:07 6.3 °C 4.6 °C 1021.9 hPa WSW 6.1 km/h 6.9 km/h 89 % 0.0 mm
20:12 6.3 °C 4.8 °C 1021.9 hPa WSW 6.9 km/h 7.6 km/h 90 % 0.0 mm
20:17 6.3 °C 4.9 °C 1021.9 hPa WSW 7.6 km/h 9.3 km/h 91 % 0.0 mm
20:22 6.4 °C 5.0 °C 1021.9 hPa WSW 7.6 km/h 9.3 km/h 91 % 0.0 mm
20:27 6.4 °C 5.3 °C 1021.9 hPa WSW 6.1 km/h 9.3 km/h 92 % 0.0 mm
20:32 6.6 °C 5.5 °C 1021.9 hPa WSW 6.9 km/h 9.0 km/h 93 % 0.0 mm
20:37 6.8 °C 5.7 °C 1021.9 hPa WSW 7.2 km/h 9.7 km/h 93 % 0.0 mm
20:42 6.8 °C 5.8 °C 1021.9 hPa WSW 7.9 km/h 11.6 km/h 93 % 0.0 mm
20:47 7.1 °C 6.2 °C 1021.9 hPa WSW 7.9 km/h 11.6 km/h 94 % 0.0 mm
20:52 7.2 °C 6.3 °C 1021.9 hPa WSW 8.7 km/h 10.8 km/h 94 % 0.0 mm
20:57 7.3 °C 6.3 °C 1021.9 hPa WSW 9.7 km/h 10.1 km/h 94 % 0.0 mm
21:02 7.3 °C 6.3 °C 1021.9 hPa WSW 11.6 km/h 11.6 km/h 94 % 0.0 mm
21:07 7.3 °C 6.6 °C 1021.9 hPa WSW 7.9 km/h 11.6 km/h 95 % 0.0 mm
21:12 7.6 °C 6.8 °C 1021.9 hPa WSW 9.3 km/h 11.6 km/h 95 % 0.0 mm
21:17 7.6 °C 6.8 °C 1021.9 hPa WSW 9.3 km/h 10.5 km/h 95 % 0.0 mm
21:22 7.7 °C 6.9 °C 1021.9 hPa West 9.3 km/h 13.7 km/h 95 % 0.0 mm
21:23 7.7 °C 6.9 °C 1021.9 hPa WSW 11.9 km/h 13.7 km/h 95 % 0.0 mm
21:28 7.7 °C 7.0 °C 1021.9 hPa WSW 10.1 km/h 13.7 km/h 95 % 0.0 mm
21:33 7.7 °C 7.2 °C 1021.9 hPa WSW 9.7 km/h 11.9 km/h 96 % 0.0 mm
21:38 7.7 °C 7.2 °C 1021.9 hPa WSW 8.7 km/h 11.6 km/h 96 % 0.0 mm
21:43 7.8 °C 7.1 °C 1021.9 hPa WSW 6.9 km/h 11.6 km/h 95 % 0.0 mm
21:48 7.8 °C 7.1 °C 1021.9 hPa WSW 10.1 km/h 12.6 km/h 95 % 0.0 mm
21:53 7.8 °C 7.1 °C 1021.9 hPa WSW 10.1 km/h 12.6 km/h 95 % 0.0 mm
21:58 7.9 °C 7.2 °C 1021.9 hPa WSW 11.9 km/h 14.0 km/h 95 % 0.0 mm
22:03 8.1 °C 7.4 °C 1021.9 hPa WSW 12.6 km/h 14.0 km/h 96 % 0.0 mm
22:08 8.1 °C 7.4 °C 1021.9 hPa WSW 9.7 km/h 14.0 km/h 96 % 0.0 mm
22:13 8.1 °C 7.6 °C 1021.9 hPa SW 7.9 km/h 14.0 km/h 96 % 0.0 mm
22:18 8.1 °C 7.6 °C 1021.9 hPa WSW 7.9 km/h 12.6 km/h 96 % 0.0 mm
22:23 8.2 °C 7.6 °C 1021.9 hPa SW 6.4 km/h 12.2 km/h 96 % 0.0 mm
22:28 8.2 °C 7.6 °C 1021.9 hPa SW 7.6 km/h 9.7 km/h 96 % 0.0 mm
22:33 8.2 °C 7.6 °C 1021.9 hPa SW 6.9 km/h 10.1 km/h 96 % 0.0 mm
22:38 8.2 °C 7.6 °C 1021.9 hPa SW 10.1 km/h 10.5 km/h 96 % 0.0 mm
22:43 8.3 °C 7.6 °C 1021.9 hPa SW 6.9 km/h 10.5 km/h 95 % 0.0 mm
22:48 8.3 °C 7.6 °C 1021.9 hPa SW 9.0 km/h 9.7 km/h 95 % 0.0 mm
22:53 8.3 °C 7.6 °C 1021.9 hPa Calm   9.0 km/h 95 % 0.0 mm
22:58 8.3 °C 7.6 °C 1021.9 hPa Calm   9.0 km/h 95 % 0.0 mm
23:03 8.3 °C 7.6 °C 1021.9 hPa South 4.0 km/h 9.7 km/h 95 % 0.0 mm
23:08 8.3 °C 7.6 °C 1021.9 hPa Calm   10.1 km/h 95 % 0.0 mm
23:13 8.3 °C 7.6 °C 1021.9 hPa SW 6.9 km/h 10.1 km/h 95 % 0.0 mm
23:18 8.3 °C 7.6 °C 1021.9 hPa WSW 7.9 km/h 11.6 km/h 95 % 0.0 mm
23:23 8.3 °C 7.6 °C 1021.9 hPa Calm   11.6 km/h 95 % 0.0 mm
23:28 8.3 °C 7.6 °C 1021.9 hPa SSW 5.0 km/h 9.7 km/h 95 % 0.0 mm
23:33 8.3 °C 7.6 °C 1021.9 hPa SW 8.7 km/h 10.5 km/h 95 % 0.0 mm
23:38 8.3 °C 7.6 °C 1020.9 hPa Calm   10.5 km/h 95 % 0.0 mm
23:43 8.3 °C 7.6 °C 1020.9 hPa SSW 6.4 km/h 9.7 km/h 95 % 0.0 mm
23:48 8.3 °C 7.6 °C 1020.9 hPa SSW 6.1 km/h 9.7 km/h 95 % 0.0 mm
23:53 8.3 °C 7.6 °C 1020.9 hPa WSW 9.0 km/h 9.7 km/h 95 % 0.0 mm
23:58 8.3 °C 7.6 °C 1020.9 hPa SW 9.7 km/h 12.2 km/h 95 % 0.0 mm
Le Gheer Warneton
Courtoisie de Weather Underground - 2.25 mb

Mise a jour : 18/12/2017 21:33:12
Généré par Cumulus 1.9.4 (1099)